This is the latest recevied weather packets stored in our database for station/object HB9CJD-1. If no packets are shown the sender has not sent any weather packets the latest 10 day(s).
| Time | Temp. | Humidity | Pressure | Rain* | Wind** | Luminosity | Snow |
|---|---|---|---|---|---|---|---|
| 1777721275 | 22.78° C | 39% | 1023 hPa | - | - | - | - |
| 1777720672 | 23.33° C | 39% | 1023.2 hPa | - | - | - | - |
| 1777720672 | 23.33° C | 39% | 1023.2 hPa | - | - | - | - |
| 1777720068 | 23.33° C | 41% | 1023.3 hPa | - | - | - | - |
| 1777720068 | 23.33° C | 41% | 1023.3 hPa | - | - | - | - |
| 1777719465 | 22.78° C | 44% | 1023.5 hPa | - | - | - | - |
| 1777719465 | 22.78° C | 44% | 1023.5 hPa | - | - | - | - |
| 1777718862 | 22.22° C | 41% | 1023.7 hPa | - | - | - | - |
| 1777718862 | 22.22° C | 41% | 1023.7 hPa | - | - | - | - |
| 1777718259 | 22.22° C | 42% | 1023.7 hPa | - | - | - | - |
| 1777718259 | 22.22° C | 42% | 1023.7 hPa | - | - | - | - |
| 1777717655 | 21.67° C | 43% | 1023.9 hPa | - | - | - | - |
| 1777717655 | 21.67° C | 43% | 1023.9 hPa | - | - | - | - |
| 1777717052 | 21.11° C | 45% | 1024 hPa | - | - | - | - |
| 1777717052 | 21.11° C | 45% | 1024 hPa | - | - | - | - |
| 1777716449 | 21.11° C | 45% | 1024.1 hPa | - | - | - | - |
| 1777716449 | 21.11° C | 45% | 1024.1 hPa | - | - | - | - |
| 1777715846 | 20.56° C | 48% | 1024.3 hPa | - | - | - | - |
| 1777715845 | 20.56° C | 48% | 1024.3 hPa | - | - | - | - |
| 1777715242 | 20.56° C | 48% | 1024.4 hPa | - | - | - | - |
| 1777715242 | 20.56° C | 48% | 1024.4 hPa | - | - | - | - |
| 1777714639 | 20.56° C | 46% | 1024.5 hPa | - | - | - | - |
| 1777714639 | 20.56° C | 46% | 1024.5 hPa | - | - | - | - |
| 1777714036 | 20.56° C | 47% | 1024.5 hPa | - | - | - | - |
| 1777714036 | 20.56° C | 47% | 1024.5 hPa | - | - | - | - |
* Rain since midnight (hover to see other rain measurements)
** Current wind speed in m/s (hover to see current wind gust speed)